Location: ?????????
(44.2517°N, 135.2292°E)
Time: 07:24:34
(UTC+00:00)

NOSS 3-2 (A) - Pass Details

Date: 19 May 2025
Orbit: 674 x 1530 km, 63.4° (Epoch: 29 May)

Event Time Altitude Azimuth Distance (km) Brightness Sun altitude
Rises 16:46:50 0° 319° (NW) 3,968 7.0 -21.0°
Reaches altitude 10° 16:49:24 10° 315° (NW) 3,120 6.3 -20.7°
Maximum altitude 16:56:50 55° 241° (WSW) 1,593 4.2 -20.1°
Enters shadow 17:04:22 14° 169° (S) 3,252 5.8 -19.4°
